Year,Month,Day,Hour,Minute,Value (Times are PST for temperature in C)
2008,07,19,00,00,12.90
2008,07,19,00,01,12.80
2008,07,19,00,02,12.80
2008,07,19,00,03,12.80
2008,07,19,00,04,12.70
2008,07,19,00,05,12.70
2008,07,19,00,06,12.70
2008,07,19,00,07,12.70
2008,07,19,00,08,12.70
2008,07,19,00,09,12.60
2008,07,19,00,10,12.60
2008,07,19,00,11,12.60
2008,07,19,00,12,12.60
2008,07,19,00,13,12.60
2008,07,19,00,14,12.60
2008,07,19,00,15,12.50
2008,07,19,00,16,12.50
2008,07,19,00,17,12.50
2008,07,19,00,18,12.40
2008,07,19,00,19,12.40
2008,07,19,00,20,12.40
2008,07,19,00,21,12.40
2008,07,19,00,22,12.40
2008,07,19,00,23,12.40
2008,07,19,00,24,12.40
2008,07,19,00,25,12.40
2008,07,19,00,26,12.40
2008,07,19,00,27,12.40
2008,07,19,00,28,12.40
2008,07,19,00,29,12.40
2008,07,19,00,30,12.30
2008,07,19,00,31,12.30
2008,07,19,00,32,12.30
2008,07,19,00,33,12.30
2008,07,19,00,34,12.30
2008,07,19,00,35,12.30
2008,07,19,00,36,12.30
2008,07,19,00,37,12.30
2008,07,19,00,38,12.30
2008,07,19,00,39,12.30
2008,07,19,00,40,12.30
2008,07,19,00,41,12.30
2008,07,19,00,42,12.30
2008,07,19,00,43,12.30
2008,07,19,00,44,12.30
2008,07,19,00,45,12.30
2008,07,19,00,46,12.30
2008,07,19,00,47,12.30
2008,07,19,00,48,12.30
2008,07,19,00,49,12.30
2008,07,19,00,50,12.30
2008,07,19,00,51,12.30
2008,07,19,00,52,12.30
2008,07,19,00,53,12.40
2008,07,19,00,54,12.40
2008,07,19,00,55,12.40
2008,07,19,00,56,12.40
2008,07,19,00,57,12.40
2008,07,19,00,58,12.40
2008,07,19,00,59,12.40
2008,07,19,01,00,12.40
2008,07,19,01,01,12.40
2008,07,19,01,02,12.50
2008,07,19,01,03,12.50
2008,07,19,01,04,12.50
2008,07,19,01,05,12.50
2008,07,19,01,06,12.50
2008,07,19,01,07,12.50
2008,07,19,01,08,12.50
2008,07,19,01,09,12.50
2008,07,19,01,10,12.50
2008,07,19,01,11,12.50
2008,07,19,01,12,12.50
2008,07,19,01,13,12.50
2008,07,19,01,14,12.50
2008,07,19,01,15,12.50
2008,07,19,01,16,12.50
2008,07,19,01,17,12.50
2008,07,19,01,18,12.50
2008,07,19,01,19,12.50
2008,07,19,01,20,12.50
2008,07,19,01,21,12.50
2008,07,19,01,22,12.50
2008,07,19,01,23,12.50
2008,07,19,01,24,12.50
2008,07,19,01,25,12.50
2008,07,19,01,26,12.50
2008,07,19,01,27,12.50
2008,07,19,01,28,12.40
2008,07,19,01,29,12.40
2008,07,19,01,30,12.40
2008,07,19,01,31,12.40
2008,07,19,01,32,12.40
2008,07,19,01,33,12.40
2008,07,19,01,34,12.40
2008,07,19,01,35,12.40
2008,07,19,01,36,12.40
2008,07,19,01,37,12.30
2008,07,19,01,38,12.30
2008,07,19,01,39,12.30
2008,07,19,01,40,12.30
2008,07,19,01,41,12.30
2008,07,19,01,42,12.30
2008,07,19,01,43,12.30
2008,07,19,01,44,12.30
2008,07,19,01,45,12.30
2008,07,19,01,46,12.30
2008,07,19,01,47,12.30
2008,07,19,01,48,12.30
2008,07,19,01,49,12.30
2008,07,19,01,50,12.30
2008,07,19,01,51,12.30
2008,07,19,01,52,12.30
2008,07,19,01,53,12.20
2008,07,19,01,54,12.20
2008,07,19,01,55,12.20
2008,07,19,01,56,12.20
2008,07,19,01,57,12.20
2008,07,19,01,58,12.20
2008,07,19,01,59,12.20
2008,07,19,02,00,12.20
2008,07,19,02,01,12.20
2008,07,19,02,02,12.20
2008,07,19,02,03,12.10
2008,07,19,02,04,12.10
2008,07,19,02,05,12.10
2008,07,19,02,06,12.10
2008,07,19,02,07,12.10
2008,07,19,02,08,12.10
2008,07,19,02,09,12.10
2008,07,19,02,10,12.10
2008,07,19,02,11,12.10
2008,07,19,02,12,12.10
2008,07,19,02,13,12.10
2008,07,19,02,14,12.10
2008,07,19,02,15,12.10
2008,07,19,02,16,12.10
2008,07,19,02,17,12.00
2008,07,19,02,18,12.00
2008,07,19,02,19,12.00
2008,07,19,02,20,12.00
2008,07,19,02,21,12.00
2008,07,19,02,22,12.00
2008,07,19,02,23,12.00
2008,07,19,02,24,12.00
2008,07,19,02,25,12.00
2008,07,19,02,26,12.00
2008,07,19,02,27,12.00
2008,07,19,02,28,12.00
2008,07,19,02,29,12.00
2008,07,19,02,30,12.00
2008,07,19,02,31,12.00
2008,07,19,02,32,12.00
2008,07,19,02,33,12.00
2008,07,19,02,34,12.00
2008,07,19,02,35,12.00
2008,07,19,02,36,12.00
2008,07,19,02,37,12.00
2008,07,19,02,38,12.00
2008,07,19,02,39,11.90
2008,07,19,02,40,11.90
2008,07,19,02,41,11.90
2008,07,19,02,42,11.90
2008,07,19,02,43,11.90
2008,07,19,02,44,11.90
2008,07,19,02,45,11.90
2008,07,19,02,46,11.90
2008,07,19,02,47,11.90
2008,07,19,02,48,11.90
2008,07,19,02,49,11.90
2008,07,19,02,50,11.90
2008,07,19,02,51,11.90
2008,07,19,02,52,11.90
2008,07,19,02,53,11.90
2008,07,19,02,54,11.90
2008,07,19,02,55,11.90
2008,07,19,02,56,11.90
2008,07,19,02,57,11.90
2008,07,19,02,58,11.90
2008,07,19,02,59,11.90
2008,07,19,03,00,11.90
2008,07,19,03,01,11.90
2008,07,19,03,02,11.90
2008,07,19,03,03,11.90
2008,07,19,03,04,11.90
2008,07,19,03,05,11.90
2008,07,19,03,06,11.90
2008,07,19,03,07,11.90
2008,07,19,03,08,11.90
2008,07,19,03,09,11.90
2008,07,19,03,10,11.90
2008,07,19,03,11,11.90
2008,07,19,03,12,11.80
2008,07,19,03,13,11.80
2008,07,19,03,14,11.80
2008,07,19,03,15,11.80
2008,07,19,03,16,11.80
2008,07,19,03,17,11.80
2008,07,19,03,18,11.80
2008,07,19,03,19,11.80
2008,07,19,03,20,11.80
2008,07,19,03,21,11.80
2008,07,19,03,22,11.80
2008,07,19,03,23,11.80
2008,07,19,03,24,11.80
2008,07,19,03,25,11.80
2008,07,19,03,26,11.80
2008,07,19,03,27,11.80
2008,07,19,03,28,11.80
2008,07,19,03,29,11.90
2008,07,19,03,30,11.90
2008,07,19,03,31,11.90
2008,07,19,03,32,11.90
2008,07,19,03,33,11.90
2008,07,19,03,34,11.90
2008,07,19,03,35,11.90
2008,07,19,03,36,11.90
2008,07,19,03,37,11.90
2008,07,19,03,38,11.90
2008,07,19,03,39,11.90
2008,07,19,03,40,11.90
2008,07,19,03,41,11.90
2008,07,19,03,42,11.90
2008,07,19,04,12,11.90
2008,07,19,04,47,11.80
2008,07,19,05,09,11.70
2008,07,19,05,29,11.80
2008,07,19,05,54,11.90
2008,07,19,06,13,12.00
2008,07,19,06,37,12.50
2008,07,19,06,58,12.90
2008,07,19,07,29,14.10
2008,07,19,07,58,14.50
2008,07,19,08,27,16.20
2008,07,19,08,52,15.50
2008,07,19,09,14,15.20
2008,07,19,09,37,15.60
2008,07,19,09,39,15.70
2008,07,19,09,40,15.80
2008,07,19,09,41,15.80
2008,07,19,09,42,15.90
2008,07,19,09,43,15.90
2008,07,19,09,44,16.00
2008,07,19,09,45,16.10
2008,07,19,09,46,16.20
2008,07,19,09,47,16.20
2008,07,19,09,48,16.30
2008,07,19,09,49,16.30
2008,07,19,09,50,16.40
2008,07,19,09,51,16.50
2008,07,19,09,52,16.60
2008,07,19,09,53,16.70
2008,07,19,09,54,16.70
2008,07,19,09,55,16.70
2008,07,19,09,56,16.70
2008,07,19,09,57,16.50
2008,07,19,09,58,16.40
2008,07,19,09,59,16.30
2008,07,19,10,00,16.20
2008,07,19,10,01,16.10
2008,07,19,10,02,15.90
2008,07,19,10,03,15.80
2008,07,19,10,04,15.70
2008,07,19,10,05,15.70
2008,07,19,10,06,15.60
2008,07,19,10,07,15.50
2008,07,19,10,08,15.40
2008,07,19,10,09,15.40
2008,07,19,10,10,15.30
2008,07,19,10,11,15.30
2008,07,19,10,12,15.20
2008,07,19,10,13,15.20
2008,07,19,10,14,15.20
2008,07,19,10,15,15.10
2008,07,19,10,16,15.10
2008,07,19,10,17,15.10
2008,07,19,10,18,15.10
2008,07,19,10,19,15.10
2008,07,19,10,20,15.10
2008,07,19,10,21,15.10
2008,07,19,10,22,15.10
2008,07,19,10,23,15.10
2008,07,19,10,24,15.20
2008,07,19,10,25,15.20
2008,07,19,10,26,15.10
2008,07,19,10,27,15.20
2008,07,19,10,28,15.20
2008,07,19,10,29,15.20
2008,07,19,10,30,15.20
2008,07,19,10,31,15.30
2008,07,19,10,32,15.40
2008,07,19,10,33,15.60
2008,07,19,10,34,15.70
2008,07,19,10,35,15.70
2008,07,19,10,36,15.70
2008,07,19,10,37,15.80
2008,07,19,10,38,15.80
2008,07,19,10,39,15.80
2008,07,19,10,40,15.80
2008,07,19,10,41,15.80
2008,07,19,10,42,15.80
2008,07,19,10,43,15.70
2008,07,19,10,44,15.70
2008,07,19,10,45,15.80
2008,07,19,10,46,15.80
2008,07,19,10,47,15.80
2008,07,19,10,48,15.80
2008,07,19,10,49,15.80
2008,07,19,10,50,16.00
2008,07,19,10,51,16.00
2008,07,19,10,52,16.10
2008,07,19,10,53,16.20
2008,07,19,10,54,16.20
2008,07,19,10,55,16.20
2008,07,19,10,56,16.10
2008,07,19,10,57,16.20
2008,07,19,10,58,16.20
2008,07,19,10,59,16.30
2008,07,19,11,00,16.30
2008,07,19,11,01,16.30
2008,07,19,11,02,16.30
2008,07,19,11,03,16.30
2008,07,19,11,04,16.30
2008,07,19,11,05,16.30
2008,07,19,11,06,16.30
2008,07,19,11,07,16.30
2008,07,19,11,08,16.40
2008,07,19,11,09,16.50
2008,07,19,11,10,16.50
2008,07,19,11,11,16.60
2008,07,19,11,12,16.70
2008,07,19,11,13,16.70
2008,07,19,11,14,16.70
2008,07,19,11,15,16.70
2008,07,19,11,16,16.60
2008,07,19,11,17,16.60
2008,07,19,11,18,16.60
2008,07,19,11,19,16.60
2008,07,19,11,20,16.60
2008,07,19,11,21,16.70
2008,07,19,11,22,16.80
2008,07,19,11,23,16.90
2008,07,19,11,24,17.00
2008,07,19,11,25,17.10
2008,07,19,11,26,17.10
2008,07,19,11,27,17.20
2008,07,19,11,28,17.20
2008,07,19,11,29,17.20
2008,07,19,11,30,17.20
2008,07,19,11,31,17.30
2008,07,19,11,32,17.30
2008,07,19,11,33,17.30
2008,07,19,11,34,17.40
2008,07,19,11,35,17.40
2008,07,19,11,36,17.40
2008,07,19,11,37,17.30
2008,07,19,11,38,17.30
2008,07,19,11,39,17.30
2008,07,19,11,40,17.30
2008,07,19,11,41,17.20
2008,07,19,11,42,17.20
2008,07,19,11,43,17.00
2008,07,19,11,44,16.90
2008,07,19,11,45,16.90
2008,07,19,11,46,16.90
2008,07,19,11,47,16.80
2008,07,19,11,48,16.80
2008,07,19,11,49,16.70
2008,07,19,11,50,16.60
2008,07,19,11,51,16.50
2008,07,19,11,52,16.40
2008,07,19,11,53,16.40
2008,07,19,11,54,16.40
2008,07,19,11,55,16.40
2008,07,19,11,56,16.40
2008,07,19,11,57,16.50
2008,07,19,11,58,16.60
2008,07,19,11,59,16.70
2008,07,19,12,00,16.80
2008,07,19,12,01,16.90
2008,07,19,12,02,17.00
2008,07,19,12,03,17.00
2008,07,19,12,04,17.10
2008,07,19,12,05,17.20
2008,07,19,12,06,17.20
2008,07,19,12,07,17.10
2008,07,19,12,08,17.10
2008,07,19,12,09,17.10
2008,07,19,12,10,17.10
2008,07,19,12,11,17.10
2008,07,19,12,12,17.00
2008,07,19,12,13,17.00
2008,07,19,12,14,17.00
2008,07,19,12,15,17.00
2008,07,19,12,16,17.10
2008,07,19,12,17,17.10
2008,07,19,12,18,17.10
2008,07,19,12,19,17.20
2008,07,19,12,20,17.10
2008,07,19,12,21,17.10
2008,07,19,12,22,17.10
2008,07,19,12,23,17.10
2008,07,19,12,24,17.20
2008,07,19,12,25,17.10
2008,07,19,12,26,17.10
2008,07,19,12,27,17.10
2008,07,19,12,28,17.20
2008,07,19,12,29,17.20
2008,07,19,12,30,17.20
2008,07,19,12,31,17.20
2008,07,19,12,32,17.20
2008,07,19,12,33,17.30
2008,07,19,12,34,17.30
2008,07,19,12,35,17.30
2008,07,19,12,36,17.30
2008,07,19,12,37,17.30
2008,07,19,12,38,17.30
2008,07,19,12,39,17.30
2008,07,19,12,40,17.20
2008,07,19,12,41,17.20
2008,07,19,12,42,17.10
2008,07,19,12,43,17.00
2008,07,19,12,44,16.90
2008,07,19,12,45,16.80
2008,07,19,12,46,16.80
2008,07,19,12,47,16.80
2008,07,19,12,48,16.80
2008,07,19,12,49,16.80
2008,07,19,12,50,16.80
2008,07,19,12,51,16.90
2008,07,19,12,52,17.00
2008,07,19,12,53,17.00
2008,07,19,12,54,17.00
2008,07,19,12,55,17.00
2008,07,19,12,56,17.10
2008,07,19,12,57,17.30
2008,07,19,12,58,17.30
2008,07,19,12,59,17.40
2008,07,19,13,00,17.40
2008,07,19,13,01,17.40
2008,07,19,13,02,17.40
2008,07,19,13,03,17.40
2008,07,19,13,04,17.40
2008,07,19,13,05,17.40
2008,07,19,13,06,17.40
2008,07,19,13,07,17.40
2008,07,19,13,08,17.40
2008,07,19,13,09,17.40
2008,07,19,13,10,17.40
2008,07,19,13,11,17.40
2008,07,19,13,12,17.40
2008,07,19,13,13,17.40
2008,07,19,13,14,17.40
2008,07,19,13,15,17.40
2008,07,19,13,16,17.50
2008,07,19,13,17,17.50
2008,07,19,13,18,17.60
2008,07,19,13,19,17.80
2008,07,19,13,20,17.80
2008,07,19,13,21,17.80
2008,07,19,13,22,17.80
2008,07,19,13,23,17.80
2008,07,19,13,24,17.90
2008,07,19,13,25,17.90
2008,07,19,13,26,17.90
2008,07,19,13,27,17.90
2008,07,19,13,28,18.00
2008,07,19,13,29,18.10
2008,07,19,13,30,18.20
2008,07,19,13,31,18.20
2008,07,19,13,32,18.30
2008,07,19,13,33,18.30
2008,07,19,13,34,18.30
2008,07,19,13,35,18.30
2008,07,19,13,36,18.30
2008,07,19,13,37,18.20
2008,07,19,13,38,18.10
2008,07,19,13,39,18.00
2008,07,19,13,40,17.90
2008,07,19,13,41,17.80
2008,07,19,13,42,17.70
2008,07,19,13,43,17.60
2008,07,19,13,44,17.50
2008,07,19,13,45,17.50
2008,07,19,13,46,17.50
2008,07,19,13,47,17.50
2008,07,19,13,48,17.60
2008,07,19,13,49,17.70
2008,07,19,13,50,17.80
2008,07,19,13,51,17.90
2008,07,19,13,52,18.10
2008,07,19,13,53,18.30
2008,07,19,13,54,18.50
2008,07,19,13,55,18.60
2008,07,19,13,56,18.70
2008,07,19,13,57,18.80
2008,07,19,13,58,18.70
2008,07,19,13,59,18.70
2008,07,19,14,00,18.60
2008,07,19,14,01,18.50
2008,07,19,14,02,18.40
2008,07,19,14,03,18.30
2008,07,19,14,04,18.30
2008,07,19,14,05,18.30
2008,07,19,14,06,18.30
2008,07,19,14,07,18.30
2008,07,19,14,08,18.40
2008,07,19,14,09,18.50
2008,07,19,14,10,18.70
2008,07,19,14,11,18.80
2008,07,19,14,12,18.90
2008,07,19,14,13,18.90
2008,07,19,14,14,18.80
2008,07,19,14,15,18.90
2008,07,19,14,16,18.90
2008,07,19,14,17,18.80
2008,07,19,14,18,18.80
2008,07,19,14,19,18.80
2008,07,19,14,20,18.70
2008,07,19,14,21,18.70
2008,07,19,14,22,18.70
2008,07,19,14,23,18.60
2008,07,19,14,24,18.60
2008,07,19,14,25,18.50
2008,07,19,14,26,18.50
2008,07,19,14,27,18.40
2008,07,19,14,28,18.30
2008,07,19,14,29,18.30
2008,07,19,14,30,18.30
2008,07,19,14,31,18.40
2008,07,19,14,32,18.40
2008,07,19,14,33,18.50
2008,07,19,14,34,18.60
2008,07,19,14,35,18.70
2008,07,19,14,36,18.80
2008,07,19,14,37,18.90
2008,07,19,14,38,19.00
2008,07,19,14,39,19.00
2008,07,19,14,40,18.90
2008,07,19,14,41,18.90
2008,07,19,14,42,18.90
2008,07,19,14,43,18.90
2008,07,19,14,44,19.00
2008,07,19,14,45,19.00
2008,07,19,14,46,19.00
2008,07,19,14,47,19.00
2008,07,19,14,48,19.00
2008,07,19,14,49,19.00
2008,07,19,14,50,18.90
2008,07,19,14,51,18.80
2008,07,19,14,52,18.80
2008,07,19,14,53,18.70
2008,07,19,14,54,18.70
2008,07,19,14,55,18.80
2008,07,19,14,56,18.80
2008,07,19,14,57,18.80
2008,07,19,14,58,18.70
2008,07,19,14,59,18.50
2008,07,19,15,00,18.40
2008,07,19,15,01,18.40
2008,07,19,15,02,18.40
2008,07,19,15,03,18.30
2008,07,19,15,04,18.30
2008,07,19,15,05,18.30
2008,07,19,15,06,18.30
2008,07,19,15,07,18.30
2008,07,19,15,08,18.40
2008,07,19,15,09,18.40
2008,07,19,15,10,18.40
2008,07,19,15,11,18.30
2008,07,19,15,12,18.30
2008,07,19,15,13,18.30
2008,07,19,15,14,18.30
2008,07,19,15,15,18.30
2008,07,19,15,16,18.30
2008,07,19,15,17,18.30
2008,07,19,15,18,18.30
2008,07,19,15,19,18.40
2008,07,19,15,20,18.40
2008,07,19,15,21,18.40
2008,07,19,15,22,18.40
2008,07,19,15,23,18.40
2008,07,19,15,24,18.50
2008,07,19,15,25,18.50
2008,07,19,15,26,18.60
2008,07,19,15,27,18.70
2008,07,19,15,28,18.80
2008,07,19,15,29,19.00
2008,07,19,15,30,19.10
2008,07,19,15,31,19.30
2008,07,19,15,32,19.50
2008,07,19,15,33,19.70
2008,07,19,15,34,19.80
2008,07,19,15,35,19.80
2008,07,19,15,36,19.70
2008,07,19,15,37,19.60
2008,07,19,15,38,19.60
2008,07,19,15,39,19.60
2008,07,19,15,40,19.60
2008,07,19,15,41,19.40
2008,07,19,15,42,19.30
2008,07,19,15,43,19.20
2008,07,19,15,44,19.10
2008,07,19,15,45,19.10
2008,07,19,15,46,19.20
2008,07,19,15,47,19.20
2008,07,19,15,48,19.20
2008,07,19,15,49,19.10
2008,07,19,15,50,19.10
2008,07,19,15,51,19.10
2008,07,19,15,52,19.10
2008,07,19,15,53,19.10
2008,07,19,15,54,19.00
2008,07,19,15,55,19.00
2008,07,19,15,56,18.90
2008,07,19,15,57,18.90
2008,07,19,15,58,18.90
2008,07,19,15,59,18.90
2008,07,19,16,00,18.90
2008,07,19,16,01,18.90
2008,07,19,16,02,18.90
2008,07,19,16,03,19.00
2008,07,19,16,04,19.20
2008,07,19,16,05,19.30
2008,07,19,16,06,19.50
2008,07,19,16,07,19.60
2008,07,19,16,08,19.80
2008,07,19,16,09,19.90
2008,07,19,16,10,19.80
2008,07,19,16,11,19.60
2008,07,19,16,12,19.40
2008,07,19,16,13,19.10
2008,07,19,16,14,18.90
2008,07,19,16,15,18.70
2008,07,19,16,16,18.50
2008,07,19,16,17,18.40
2008,07,19,16,18,18.30
2008,07,19,16,19,18.20
2008,07,19,16,20,18.20
2008,07,19,16,21,18.30
2008,07,19,16,22,18.30
2008,07,19,16,23,18.30
2008,07,19,16,24,18.30
2008,07,19,16,25,18.20
2008,07,19,16,26,18.30
2008,07,19,16,27,18.30
2008,07,19,16,28,18.40
2008,07,19,16,29,18.50
2008,07,19,16,30,18.60
2008,07,19,16,31,18.60
2008,07,19,16,32,18.60
2008,07,19,16,33,18.60
2008,07,19,16,34,18.60
2008,07,19,16,35,18.60
2008,07,19,16,36,18.60
2008,07,19,16,37,18.60
2008,07,19,16,38,18.70
2008,07,19,16,39,18.70
2008,07,19,16,40,18.70
2008,07,19,16,41,18.70
2008,07,19,16,42,18.70
2008,07,19,16,43,18.60
2008,07,19,16,44,18.60
2008,07,19,16,45,18.60
2008,07,19,16,46,18.50
2008,07,19,16,47,18.40
2008,07,19,16,48,18.30
2008,07,19,16,49,18.30
2008,07,19,16,50,18.30
2008,07,19,16,51,18.40
2008,07,19,16,52,18.40
2008,07,19,16,53,18.40
2008,07,19,16,54,18.40
2008,07,19,16,55,18.40
2008,07,19,16,56,18.40
2008,07,19,16,57,18.40
2008,07,19,16,58,18.40
2008,07,19,16,59,18.50
2008,07,19,17,00,18.50
2008,07,19,17,01,18.50
2008,07,19,17,02,18.50
2008,07,19,17,03,18.40
2008,07,19,17,04,18.40
2008,07,19,17,05,18.50
2008,07,19,17,06,18.50
2008,07,19,17,07,18.50
2008,07,19,17,08,18.60
2008,07,19,17,09,18.60
2008,07,19,17,10,18.60
2008,07,19,17,11,18.60
2008,07,19,17,12,18.40
2008,07,19,17,13,18.40
2008,07,19,17,14,18.30
2008,07,19,17,15,18.30
2008,07,19,17,16,18.30
2008,07,19,17,17,18.30
2008,07,19,17,18,18.40
2008,07,19,17,19,18.40
2008,07,19,17,20,18.40
2008,07,19,17,21,18.40
2008,07,19,17,22,18.40
2008,07,19,17,23,18.40
2008,07,19,17,24,18.40
2008,07,19,17,25,18.40
2008,07,19,17,26,18.30
2008,07,19,17,27,18.30
2008,07,19,17,28,18.30
2008,07,19,17,29,18.30
2008,07,19,17,30,18.30
2008,07,19,17,31,18.30
2008,07,19,17,32,18.30
2008,07,19,17,33,18.30
2008,07,19,17,34,18.30
2008,07,19,17,35,18.30
2008,07,19,17,36,18.20
2008,07,19,17,37,18.20
2008,07,19,17,38,18.10
2008,07,19,17,39,18.10
2008,07,19,17,40,18.10
2008,07,19,17,41,18.20
2008,07,19,17,42,18.20
2008,07,19,17,43,18.20
2008,07,19,17,44,18.20
2008,07,19,17,45,18.20
2008,07,19,17,46,18.20
2008,07,19,17,47,18.20
2008,07,19,17,48,18.20
2008,07,19,17,49,18.20
2008,07,19,17,50,18.20
2008,07,19,17,51,18.20
2008,07,19,17,52,18.20
2008,07,19,17,53,18.10
2008,07,19,17,54,18.10
2008,07,19,17,55,18.20
2008,07,19,17,56,18.20
2008,07,19,17,57,18.30
2008,07,19,17,58,18.30
2008,07,19,17,59,18.20
2008,07,19,18,00,18.20
2008,07,19,18,01,18.10
2008,07,19,18,02,18.10
2008,07,19,18,03,18.10
2008,07,19,18,04,18.00
2008,07,19,18,05,18.00
2008,07,19,18,06,18.00
2008,07,19,18,07,18.10
2008,07,19,18,08,18.10
2008,07,19,18,09,18.10
2008,07,19,18,10,18.10
2008,07,19,18,11,18.10
2008,07,19,18,12,18.10
2008,07,19,18,13,18.10
2008,07,19,18,14,18.10
2008,07,19,18,15,18.00
2008,07,19,18,16,18.00
2008,07,19,18,17,18.00
2008,07,19,18,18,18.00
2008,07,19,18,19,18.10
2008,07,19,18,20,18.10
2008,07,19,18,21,18.00
2008,07,19,18,22,17.90
2008,07,19,18,23,17.80
2008,07,19,18,24,17.80
2008,07,19,18,25,17.80
2008,07,19,18,26,17.80
2008,07,19,18,27,17.80
2008,07,19,18,28,17.80
2008,07,19,18,29,17.70
2008,07,19,18,30,17.70
2008,07,19,18,31,17.70
2008,07,19,18,32,17.70
2008,07,19,18,33,17.70
2008,07,19,18,34,17.80
2008,07,19,18,35,17.80
2008,07,19,18,36,17.70
2008,07,19,18,37,17.70
2008,07,19,18,38,17.70
2008,07,19,18,39,17.70
2008,07,19,18,40,17.80
2008,07,19,18,41,17.70
2008,07,19,18,42,17.80
2008,07,19,18,43,17.80
2008,07,19,18,44,17.70
2008,07,19,18,45,17.70
2008,07,19,18,46,17.70
2008,07,19,18,47,17.60
2008,07,19,18,48,17.60
2008,07,19,18,49,17.60
2008,07,19,18,50,17.60
2008,07,19,18,51,17.60
2008,07,19,18,52,17.60
2008,07,19,18,53,17.50
2008,07,19,18,54,17.50
2008,07,19,18,55,17.50
2008,07,19,18,56,17.50
2008,07,19,18,57,17.50
2008,07,19,18,58,17.50
2008,07,19,18,59,17.50
2008,07,19,19,00,17.50
2008,07,19,19,01,17.60
2008,07,19,19,02,17.60
2008,07,19,19,03,17.60
2008,07,19,19,04,17.60
2008,07,19,19,05,17.50
2008,07,19,19,06,17.50
2008,07,19,19,07,17.60
2008,07,19,19,08,17.60
2008,07,19,19,09,17.60
2008,07,19,19,10,17.60
2008,07,19,19,11,17.60
2008,07,19,19,12,17.60
2008,07,19,19,13,17.50
2008,07,19,19,14,17.50
2008,07,19,19,15,17.50
2008,07,19,19,16,17.50
2008,07,19,19,17,17.50
2008,07,19,19,18,17.50
2008,07,19,19,19,17.50
2008,07,19,19,20,17.40
2008,07,19,19,21,17.40
2008,07,19,19,22,17.30
2008,07,19,19,23,17.30
2008,07,19,19,24,17.30
2008,07,19,19,25,17.30
2008,07,19,19,26,17.20
2008,07,19,19,27,17.20
2008,07,19,19,28,17.20
2008,07,19,19,29,17.20
2008,07,19,19,30,17.20
2008,07,19,19,31,17.20
2008,07,19,19,32,17.10
2008,07,19,19,33,17.10
2008,07,19,19,34,17.10
2008,07,19,19,35,17.10
2008,07,19,19,36,17.10
2008,07,19,19,37,17.10
2008,07,19,19,38,17.10
2008,07,19,19,39,17.10
2008,07,19,19,40,17.10
2008,07,19,19,41,17.00
2008,07,19,19,42,17.00
2008,07,19,19,43,16.90
2008,07,19,19,44,16.90
2008,07,19,19,45,16.80
2008,07,19,19,46,16.80
2008,07,19,19,47,16.80
2008,07,19,19,48,16.80
2008,07,19,19,49,16.80
2008,07,19,19,50,16.80
2008,07,19,19,51,16.80
2008,07,19,19,52,16.70
2008,07,19,19,53,16.70
2008,07,19,19,54,16.60
2008,07,19,19,55,16.60
2008,07,19,19,56,16.50
2008,07,19,19,57,16.40
2008,07,19,19,58,16.40
2008,07,19,19,59,16.30
2008,07,19,20,00,16.30
2008,07,19,20,01,16.30
2008,07,19,20,02,16.20
2008,07,19,20,03,16.20
2008,07,19,20,04,16.20
2008,07,19,20,05,16.20
2008,07,19,20,06,16.10
2008,07,19,20,07,16.10
2008,07,19,20,08,16.00
2008,07,19,20,09,15.90
2008,07,19,20,10,15.90
2008,07,19,20,11,15.80
2008,07,19,20,12,15.70
2008,07,19,20,13,15.60
2008,07,19,20,14,15.40
2008,07,19,20,15,15.30
2008,07,19,20,16,15.20
2008,07,19,20,17,15.10
2008,07,19,20,18,15.00
2008,07,19,20,19,15.00
2008,07,19,20,20,15.00
2008,07,19,20,21,14.90
2008,07,19,20,22,14.80
2008,07,19,20,23,14.80
2008,07,19,20,24,14.70
2008,07,19,20,25,14.70
2008,07,19,20,26,14.70
2008,07,19,20,27,14.70
2008,07,19,20,28,14.60
2008,07,19,20,29,14.60
2008,07,19,20,30,14.60
2008,07,19,20,31,14.60
2008,07,19,20,32,14.50
2008,07,19,20,33,14.40
2008,07,19,20,34,14.40
2008,07,19,20,35,14.30
2008,07,19,20,36,14.30
2008,07,19,20,37,14.20
2008,07,19,20,38,14.20
2008,07,19,20,39,14.20
2008,07,19,20,40,14.20
2008,07,19,20,41,14.20
2008,07,19,20,42,14.10
2008,07,19,20,43,14.10
2008,07,19,20,44,14.10
2008,07,19,20,45,14.00
2008,07,19,20,46,13.90
2008,07,19,20,47,13.90
2008,07,19,20,48,13.90
2008,07,19,20,49,13.80
2008,07,19,20,50,13.80
2008,07,19,20,51,13.80
2008,07,19,20,52,13.70
2008,07,19,20,53,13.70
2008,07,19,20,54,13.70
2008,07,19,20,55,13.70
2008,07,19,20,56,13.70
2008,07,19,20,57,13.70
2008,07,19,20,58,13.60
2008,07,19,20,59,13.60
2008,07,19,21,00,13.60
2008,07,19,21,01,13.60
2008,07,19,21,02,13.60
2008,07,19,21,03,13.60
2008,07,19,21,04,13.60
2008,07,19,21,05,13.60
2008,07,19,21,06,13.50
2008,07,19,21,07,13.50
2008,07,19,21,08,13.50
2008,07,19,21,09,13.40
2008,07,19,21,10,13.40
2008,07,19,21,11,13.40
2008,07,19,21,12,13.40
2008,07,19,21,13,13.40
2008,07,19,21,14,13.40
2008,07,19,21,15,13.40
2008,07,19,21,16,13.40
2008,07,19,21,17,13.30
2008,07,19,21,18,13.30
2008,07,19,21,19,13.30
2008,07,19,21,20,13.30
2008,07,19,21,21,13.30
2008,07,19,21,22,13.30
2008,07,19,21,23,13.30
2008,07,19,21,24,13.30
2008,07,19,21,25,13.30
2008,07,19,21,26,13.30
2008,07,19,21,27,13.30
2008,07,19,21,28,13.30
2008,07,19,21,29,13.30
2008,07,19,21,30,13.30
2008,07,19,21,31,13.30
2008,07,19,21,32,13.30
2008,07,19,21,33,13.30
2008,07,19,21,34,13.30
2008,07,19,21,35,13.30
2008,07,19,21,36,13.30
2008,07,19,21,37,13.30
2008,07,19,21,38,13.30
2008,07,19,21,39,13.30
2008,07,19,21,40,13.30
2008,07,19,21,41,13.40
2008,07,19,21,42,13.40
2008,07,19,21,43,13.40
2008,07,19,21,44,13.40
2008,07,19,21,45,13.40
2008,07,19,21,46,13.40
2008,07,19,21,47,13.40
2008,07,19,21,48,13.40
2008,07,19,21,49,13.40
2008,07,19,21,50,13.40
2008,07,19,21,51,13.40
2008,07,19,21,52,13.40
2008,07,19,21,53,13.40
2008,07,19,21,54,13.50
2008,07,19,21,55,13.50
2008,07,19,21,56,13.50
2008,07,19,21,57,13.50
2008,07,19,21,58,13.60
2008,07,19,21,59,13.60
2008,07,19,22,00,13.60
2008,07,19,22,01,13.60
2008,07,19,22,02,13.60
2008,07,19,22,03,13.60
2008,07,19,22,04,13.60
2008,07,19,22,05,13.60
2008,07,19,22,06,13.60
2008,07,19,22,07,13.60
2008,07,19,22,08,13.50
2008,07,19,22,09,13.50
2008,07,19,22,10,13.40
2008,07,19,22,11,13.40
2008,07,19,22,12,13.30
2008,07,19,22,13,13.30
2008,07,19,22,14,13.30
2008,07,19,22,15,13.30
2008,07,19,22,16,13.20
2008,07,19,22,17,13.20
2008,07,19,22,18,13.20
2008,07,19,22,19,13.20
2008,07,19,22,20,13.10
2008,07,19,22,21,13.10
2008,07,19,22,22,13.10
2008,07,19,22,23,13.10
2008,07,19,22,24,13.10
2008,07,19,22,25,13.10
2008,07,19,22,26,13.10
2008,07,19,22,27,13.00
2008,07,19,22,28,13.00
2008,07,19,22,29,13.00
2008,07,19,22,30,13.00
2008,07,19,22,31,13.00
2008,07,19,22,32,13.00
2008,07,19,22,33,13.00
2008,07,19,22,34,13.00
2008,07,19,22,35,13.00
2008,07,19,22,36,13.00
2008,07,19,22,37,13.10
2008,07,19,22,38,13.10
2008,07,19,22,39,13.10
2008,07,19,22,40,13.00
2008,07,19,22,41,13.00
2008,07,19,22,42,13.00
2008,07,19,22,43,12.90
2008,07,19,22,44,12.90
2008,07,19,22,45,12.90
2008,07,19,22,46,12.90
2008,07,19,22,47,12.80
2008,07,19,22,48,12.80
2008,07,19,22,49,12.80
2008,07,19,22,50,12.80
2008,07,19,22,51,12.80
2008,07,19,22,52,12.80
2008,07,19,22,53,12.80
2008,07,19,22,54,12.80
2008,07,19,22,55,12.80
2008,07,19,22,56,12.80
2008,07,19,22,57,12.80
2008,07,19,22,58,12.70
2008,07,19,22,59,12.70
2008,07,19,23,00,12.70
2008,07,19,23,01,12.70